Location: Unspecified
(35.6961°N, 0.0000°E)
Time: 17:30:14
(UTC+00:00)

S-56A Canister/Altair - Pass Details

Date: 30 May 2019
Orbit: 633 x 2499 km, 38.9° (Epoch: 16 June)

Event Time Altitude Azimuth Distance (km) Brightness Sun altitude
Rises 00:32:27 0° 264° (W) 3,053 - -32.0°
Reaches altitude 10° 00:34:32 10° 267° (W) 2,240 - -31.9°
Maximum altitude 00:39:39 72° 352° (N) 950 - -31.7°
Exits shadow 00:40:08 68° 27° (NNE) 989 8.1 -31.7°
Drops below altitude 10° 00:47:04 10° 76° (ENE) 3,196 11.0 -31.4°
Sets 00:50:35 0° 79° (ENE) 4,474 11.8 -31.2°
